COSMOS 1452

Satellite information

Favourite Embed

Satellite Type and Status

PAYLOADIN ORBIT

Key statistics

Satellite COSMOS 1452 at a glance.

Uptime

15427

Days in orbit

Revolutions

≈ 14.3

Per day

Orbit

LEO

Low Earth Orbit

Inclination

74.0

Latest

Satellite identification and parameters

Extended collection of information and parameters for COSMOS 1452.

Object identification

Identified? True

Debris? False

Object name: COSMOS 1452

International designator: 1983-031A

Object number (NORAD): 13991

Object ID (CCSDS): 13991

Country: COMMONWEALTH OF INDEPENDENT STATES (CIS)

Current information (Y/N): Y

RCS size: LARGE

Orbital parameters

Period: 100.429 minutes

Inclination: 74.0484 deg

SMA: 7157.011 km

Apoapsis: 790.244 km

Periapsis: 767.507 km

RAAN: 115.0419 deg

Eccentricy: 0.0015884

Argument of periapsis: 173.6066 deg

Mean anomaly: 302.9536 deg

Mean motion: 14.33855136 rev/day

Mean motion (dot): 0.00000087 rev/day2

B* drag term: 0.000040685 1/REarth

Two-line elements (TLE)

Creation date: July 6, 2025, 6:05 p.m.

Reference frame: TEME

Reference center: EARTH

Epoch: July 6, 2025, 6:26 a.m. UTC

TLE line 0: 0 COSMOS 1452

TLE line 1: 1 13991U 83031A 25187.26851500 .00000087 00000-0 40685-4 0 9990

TLE line 2: 2 13991 74.0484 115.0419 0015884 173.6066 302.9536 14.33855136207037

Live tracking on map

Real-time ground track for satellite COSMOS 1452.

In-orbit conjunctions

A list of the most updated potential collisions computed for object COSMOS 1452.

Target Orbit TCA Probability of collision Miss distance Type
DMSP 5D-2 F13 DEB SSO 2025-06-27 06:15:18 0.001620938 234.0 (m) DEBRIS
CZ-6A DEB SSO 2025-04-06 08:09:42 0.001079936 184.0 (m) DEBRIS
CZ-6A DEB LEO 2025-03-23 06:51:25 0.0002353261 289.0 (m) DEBRIS
FENGYUN 1C DEB SSO 2025-02-10 08:44:40 0.0006323392 267.0 (m) DEBRIS
NOAA 16 DEB SSO 2024-09-25 20:16:35 0.0005789371 449.0 (m) DEBRIS

Associated space launch

Military communications satellite

COSMOS 1452 was lifted into orbit during the mission ‘Kosmos-3M | Strela-2M 31’, on board a Kosmos-3M space rocket.

The launch took place on April 12, 1983, 6:20 p.m. from 132/2.

For more information about the launch, click the button.

Launch to space Kosmos-3M | Strela-2M 31
Kosmos-3M | Strela-2M 31

Agency: N/A

Status: Launch Successful

Launch date: April 12, 1983, 6:20 p.m. UTC

Rocket: Kosmos-3M

Launch pad: 132/2

Location: Plesetsk Cosmodrome, Russian Federation

...

Latest news about this satellite

There are no fresh news available about this satellite. Check back as we update our databases every day.


Newsletter sign-up

Weekly statistics, charts and insights to help you stay on top of the space industry.